Weather History for KIGX - December, 2012

Change the Weather History Date:

Saturday, December 8, 2012

  Actual Average Record
Temperature  
Mean Temperature 56 °F -  
Max Temperature 64 °F 55 °F 77 °F (1956)
Min Temperature 48 °F 31 °F 11 °F (1954)
Degree Days  
Heating Degree Days 9    
Growing Degree Days 6 (Base 50)    
Moisture  
Dew Point 49 °F    
Average Humidity 88    
Maximum Humidity 96    
Minimum Humidity 65    
Precipitation  
Precipitation 0.00 in - - ()
Sea Level Pressure  
Sea Level Pressure 30.01 in    
Wind  
Wind Speed 2 mph (West)    
Max Wind Speed 6 mph    
Max Gust Speed -    
Visibility 5 miles    
Events      
Averages and records for this station are not official NWS values.
T = Trace of Precipitation, MM = Missing Value Source: NWS Daily Summary

Daily Weather History Graph

Daily Weather History Graph

Search for Another Location

Airport or City:

Trip Planner

Search our weather history database for the weather conditions in past years. The results will help you decide how hot, cold, wet, or windy it might be!

Date:

Astronomy

Dec. 08, 2012 Rise Set
Actual Time 7:14 AM EST 5:02 PM EST
Civil Twilight 6:46 AM EST 5:30 PM EST
Nautical Twilight 6:14 AM EST 6:02 PM EST
Astronomical Twilight 5:43 AM EST 6:33 PM EST
Moon 1:45 AM EST (12/8) 1:23 PM EST (12/8)
Length of Visible Light 10h 44m
Length of Day
9h 47m
Waning Crescent, 28% of the Moon is Illuminated
Dec 8
Waning Crescent
Dec 13
New
Dec 20
First Quarter
Dec 28
Full
Jan 4
Last Quarter

Hourly Weather History & Observations

Time (EST) Temp. Dew Point Humidity Pressure Visibility Wind Dir Wind Speed Gust Speed Precip Events Conditions
12:39 AM 51.1 °F 48.9 °F 92% 30.00 in 3.0 mi Calm Calm - N/A   Overcast
12:56 AM 51.1 °F 48.9 °F 92% 30.00 in 3.0 mi WNW 3.5 mph - N/A   Overcast
1:24 AM 51.1 °F 48.9 °F 92% 30.00 in 4.0 mi Calm Calm - N/A   Overcast
1:56 AM 51.1 °F 48.9 °F 92% 30.00 in 4.0 mi Calm Calm - N/A   Overcast
2:34 AM 50.0 °F 48.9 °F 96% 29.99 in 2.5 mi Variable 3.5 mph - N/A   Overcast
2:56 AM 50.0 °F 48.0 °F 93% 29.99 in 2.5 mi West 5.8 mph - N/A   Overcast
3:08 AM 50.0 °F 48.0 °F 93% 29.99 in 3.0 mi Variable 4.6 mph - N/A   Overcast
3:56 AM 50.0 °F 48.0 °F 93% 29.98 in 3.0 mi West 3.5 mph - N/A   Overcast
4:14 AM 50.0 °F 48.0 °F 93% 29.98 in 2.5 mi Calm Calm - N/A   Overcast
4:39 AM 50.0 °F 48.0 °F 93% 29.98 in 3.0 mi Variable 5.8 mph - N/A   Overcast
4:56 AM 50.0 °F 48.0 °F 93% 29.98 in 4.0 mi Variable 3.5 mph - N/A   Overcast
5:18 AM 50.0 °F 48.0 °F 93% 29.98 in 2.5 mi Variable 3.5 mph - N/A   Overcast
5:54 AM 50.0 °F 48.2 °F 94% 29.99 in 1.8 mi Variable 3.5 mph - N/A   Overcast
5:56 AM 50.0 °F 48.0 °F 93% 29.99 in 1.5 mi Variable 3.5 mph - N/A   Overcast
6:22 AM 50.0 °F 48.0 °F 93% 30.00 in 2.0 mi West 3.5 mph - N/A   Overcast
6:56 AM 50.0 °F 48.0 °F 93% 30.01 in 2.5 mi Variable 3.5 mph - N/A   Overcast
7:04 AM 50.0 °F 48.0 °F 93% 30.01 in 3.0 mi WSW 3.5 mph - N/A   Overcast
7:38 AM 50.0 °F 48.0 °F 93% 30.02 in 2.5 mi Variable 3.5 mph - N/A   Overcast
7:51 AM 50.0 °F 48.2 °F 94% 30.02 in 4.0 mi Variable 3.5 mph - N/A   Overcast
7:56 AM 50.0 °F 48.0 °F 93% 30.02 in 4.0 mi WSW 4.6 mph - N/A   Overcast
8:56 AM 50.0 °F 48.0 °F 93% 30.03 in 3.0 mi WSW 3.5 mph - N/A   Overcast
9:56 AM 51.1 °F 48.9 °F 92% 30.05 in 5.0 mi Variable 3.5 mph - N/A   Overcast
10:27 AM 52.0 °F 48.9 °F 89% 30.05 in 7.0 mi Variable 3.5 mph - N/A   Overcast
10:41 AM 53.1 °F 48.9 °F 86% 30.04 in 7.0 mi Calm Calm - N/A   Overcast
10:56 AM 53.1 °F 48.9 °F 86% 30.04 in 8.0 mi Variable 3.5 mph - N/A   Overcast
11:56 AM 60.1 °F 51.1 °F 72% 30.01 in 10.0 mi WNW 4.6 mph - N/A   Partly Cloudy
12:56 PM 62.1 °F 51.1 °F 67% 29.99 in 10.0 mi Variable 4.6 mph - N/A   Clear
1:56 PM 63.0 °F 52.0 °F 67% 29.98 in 10.0 mi Variable 4.6 mph - N/A   Clear
2:56 PM 64.0 °F 52.0 °F 65% 29.97 in 10.0 mi Variable 3.5 mph - N/A   Clear
3:56 PM 64.0 °F 52.0 °F 65% 29.99 in 10.0 mi Variable 3.5 mph - N/A   Clear
4:56 PM 60.1 °F 52.0 °F 75% 30.00 in 10.0 mi Calm Calm - N/A   Clear
5:56 PM 55.0 °F 51.1 °F 86% 30.00 in 10.0 mi Calm Calm - N/A   Clear
6:56 PM 55.0 °F 51.1 °F 86% 30.02 in 10.0 mi Calm Calm - N/A   Clear
7:56 PM 53.1 °F 48.9 °F 86% 30.03 in 10.0 mi Calm Calm - N/A   Clear
9:56 PM 51.1 °F 48.0 °F 89% 30.05 in 5.0 mi Calm Calm - N/A   Clear
10:12 PM 51.1 °F 48.9 °F 92% 30.05 in 2.5 mi Calm Calm - N/A   Clear
10:25 PM 48.9 °F 46.9 °F 93% 30.05 in 1.8 mi Calm Calm - N/A   Partly Cloudy
10:36 PM 50.0 °F 48.0 °F 93% 30.06 in 3.0 mi Calm Calm - N/A   Clear
10:44 PM 50.0 °F 46.9 °F 89% 30.06 in 2.5 mi Calm Calm - N/A   Clear
10:56 PM 50.0 °F 48.0 °F 93% 30.06 in 1.5 mi Calm Calm - N/A   Clear
11:56 PM 50.0 °F 48.9 °F 96% 30.06 in 7.0 mi Calm Calm - N/A   Clear